Valparaiso, IN

9:11 AM CDT on May 23, 2017 (GMT -0500)
Porter County Municipal

Weather History for KVPZ - November, 2013

Change the Weather History Date:

Tuesday, November 12, 2013

  Actual Average Record
Temperature  
Mean Temperature 26 °F 43 °F  
Max Temperature 31 °F 51 °F 69 °F (2010)
Min Temperature 20 °F 34 °F 20 °F (2013)
Degree Days  
Heating Degree Days 39 22  
Month to date heating degree days 278 241  
Since 1 July heating degree days 817 771  
Cooling Degree Days 0 0  
Month to date cooling degree days 0 0  
Year to date cooling degree days 810 713  
Moisture  
Dew Point 23 °F    
Average Humidity 88    
Maximum Humidity 100    
Minimum Humidity 56    
Precipitation  
Precipitation 0.17 in 0.12 in 0.18 in (2007)
Month to date precipitation 1.24 1.48  
Year to date precipitation 33.71 33.48  
Sea Level Pressure  
Sea Level Pressure 30.61 in    
Wind  
Wind Speed 5 mph (WSW)    
Max Wind Speed 15 mph    
Max Gust Speed 20 mph    
Visibility 6 miles    
Events Fog , Snow    
T = Trace of Precipitation, MM = Missing Value Source: NWS Daily Summary

Daily Weather History Graph

Daily Weather History Graph

Search for Another Location

Airport or City:

Trip Planner

Search our weather history database for the weather conditions in past years. The results will help you decide how hot, cold, wet, or windy it might be!

Date:

Astronomy

Nov. 12, 2013 Rise Set
Actual Time 6:33 AM CST 4:30 PM CST
Civil Twilight 6:03 AM CST 5:00 PM CST
Nautical Twilight 5:30 AM CST 5:33 PM CST
Astronomical Twilight 4:57 AM CST 6:06 PM CST
Moon 1:47 PM CST (11/12) 1:19 AM CST (11/12)
Length of Visible Light 10h 56m
Length of Day
9h 57m
Waxing Gibbous, 76% of the Moon is Illuminated
Nov 12
Waxing Gibbous
Nov 17
Full
Nov 25
Last Quarter
Dec 2
New
Dec 9
First Quarter

Hourly Weather History & Observations

Time (CST) Temp. Windchill Dew Point Humidity Pressure Visibility Wind Dir Wind Speed Gust Speed Precip Events Conditions
12:53 AM 26.1 °F 20.5 °F 24.1 °F 92% 30.48 in 10.0 mi East 4.6 mph - N/A   Mostly Cloudy
1:10 AM 26.6 °F - 26.6 °F 100% 30.45 in 2.5 mi Calm Calm - 0.00 in Snow Light Snow
1:17 AM 26.6 °F 22.6 °F 24.8 °F 93% 30.45 in 3.0 mi ESE 3.5 mph - 0.00 in Snow Light Snow
1:53 AM 27.0 °F - 26.1 °F 96% 30.49 in 9.0 mi Calm Calm - 0.00 in Snow Light Snow
2:27 AM 26.6 °F 20.0 °F 26.6 °F 100% 30.48 in 6.0 mi East 5.8 mph - 0.01 in Snow Light Snow
2:53 AM 27.0 °F 18.0 °F 25.0 °F 92% 30.52 in 9.0 mi ENE 9.2 mph - 0.01 in Snow Light Snow
3:08 AM 26.6 °F 20.0 °F 24.8 °F 93% 30.49 in 9.0 mi ENE 5.8 mph - 0.00 in   Overcast
3:53 AM 26.1 °F 19.4 °F 24.1 °F 92% 30.54 in 9.0 mi ENE 5.8 mph - 0.00 in Snow Light Snow
4:53 AM 25.0 °F - 23.0 °F 92% 30.57 in 10.0 mi Calm Calm - 0.00 in   Mostly Cloudy
5:21 AM 26.6 °F - 24.8 °F 93% 30.55 in 10.0 mi Calm Calm - N/A   Overcast
5:53 AM 25.0 °F - 24.1 °F 96% 30.60 in 2.5 mi Calm Calm - 0.02 in Snow Light Snow
6:20 AM 24.8 °F - 24.8 °F 100% 30.58 in 1.5 mi Calm Calm - 0.03 in Snow Light Snow
6:53 AM 25.0 °F 20.7 °F 24.1 °F 96% 30.63 in 1.5 mi SW 3.5 mph - 0.05 in Snow Light Snow
7:15 AM 24.8 °F 20.5 °F 24.8 °F 100% 30.60 in 0.8 mi SSW 3.5 mph - 0.03 in Snow Light Snow
7:38 AM 26.6 °F - 24.8 °F 93% 30.61 in 0.8 mi Calm Calm - 0.04 in Snow Light Snow
7:46 AM 26.6 °F - 26.6 °F 100% 30.61 in 0.8 mi Calm Calm - 0.04 in Snow Light Snow
7:53 AM 26.1 °F 21.9 °F 26.1 °F 100% 30.65 in 0.8 mi WSW 3.5 mph - 0.04 in Snow Light Snow
8:43 AM 26.6 °F - 26.6 °F 100% 30.63 in 0.8 mi Calm Calm - 0.02 in Snow Light Snow
8:53 AM 27.0 °F 23.0 °F 26.1 °F 96% 30.67 in 0.5 mi SW 3.5 mph - 0.03 in Fog , Snow Snow
9:08 AM 26.6 °F 22.6 °F 26.6 °F 100% 30.63 in 1.2 mi SW 3.5 mph - 0.00 in Snow Light Snow
9:42 AM 26.6 °F - 26.6 °F 100% 30.64 in 2.0 mi Calm Calm - 0.01 in Snow Light Snow
9:53 AM 28.0 °F - 26.1 °F 92% 30.68 in 2.0 mi Calm Calm - 0.01 in Snow Light Snow
10:01 AM 26.6 °F - 26.6 °F 100% 30.64 in 1.8 mi Calm Calm - 0.00 in Snow Light Snow
10:20 AM 28.4 °F 23.3 °F 26.6 °F 93% 30.64 in 2.0 mi SSW 4.6 mph - 0.01 in Snow Light Snow
10:26 AM 28.4 °F 23.3 °F 26.6 °F 93% 30.64 in 3.0 mi SSW 4.6 mph - 0.01 in Snow Light Snow
10:53 AM 28.0 °F 21.7 °F 27.0 °F 96% 30.68 in 5.0 mi SSW 5.8 mph - 0.01 in Snow Light Snow
11:28 AM 30.2 °F 23.4 °F 24.8 °F 80% 30.63 in 10.0 mi NW 6.9 mph - 0.00 in   Overcast
11:53 AM 30.9 °F 22.8 °F 24.1 °F 76% 30.66 in 10.0 mi NNW 9.2 mph - 0.00 in   Overcast
12:53 PM 30.0 °F 20.5 °F 23.0 °F 75% 30.66 in 10.0 mi NW 11.5 mph 19.6 mph N/A   Overcast
1:53 PM 30.0 °F 21.7 °F 19.0 °F 64% 30.67 in 10.0 mi NW 9.2 mph - N/A   Overcast
2:53 PM 30.0 °F 24.1 °F 17.1 °F 59% 30.66 in 10.0 mi WNW 5.8 mph - N/A   Clear
3:53 PM 30.0 °F 25.2 °F 16.0 °F 56% 30.65 in 10.0 mi NNW 4.6 mph - N/A   Clear
4:53 PM 25.0 °F 18.1 °F 15.1 °F 66% 30.64 in 10.0 mi West 5.8 mph - N/A   Clear
5:53 PM 24.1 °F 16.0 °F 15.1 °F 69% 30.65 in 10.0 mi West 6.9 mph - N/A   Clear
6:53 PM 21.9 °F 13.4 °F 15.1 °F 75% 30.65 in 10.0 mi WSW 6.9 mph - N/A   Clear
7:53 PM 21.0 °F 11.4 °F 15.1 °F 78% 30.65 in 10.0 mi West 8.1 mph - N/A   Clear
8:53 PM 21.9 °F 13.4 °F 16.0 °F 78% 30.65 in 10.0 mi West 6.9 mph - N/A   Clear
9:53 PM 21.9 °F 13.4 °F 16.0 °F 78% 30.64 in 10.0 mi WSW 6.9 mph - N/A   Clear
10:53 PM 21.0 °F 12.4 °F 16.0 °F 81% 30.64 in 10.0 mi WSW 6.9 mph - N/A   Clear
11:53 PM 19.9 °F 12.1 °F 16.0 °F 85% 30.63 in 10.0 mi SW 5.8 mph - N/A   Clear